TimeMST,TemperatureF,Dew PointF,Humidity,Sea Level PressureIn,VisibilityMPH,Wind Direction,Wind SpeedMPH,Gust SpeedMPH,PrecipitationIn,Events,Conditions,WindDirDegrees,DateUTC
12:05 AM,24.8,23.0,93,30.13,1.8,Calm,Calm,-,N/A,,Overcast,0,2012-11-28 07:05:00
12:15 AM,24.8,23.0,93,30.13,3.0,Calm,Calm,-,N/A,,Overcast,0,2012-11-28 07:15:00
12:31 AM,23.0,21.2,93,30.12,10.0,Calm,Calm,-,N/A,,Scattered Clouds,0,2012-11-28 07:31:00
12:51 AM,24.1,21.9,91,30.21,5.0,Calm,Calm,-,N/A,,Clear,0,2012-11-28 07:51:00
1:03 AM,24.8,21.2,86,30.12,4.0,Calm,Calm,-,N/A,,Scattered Clouds,0,2012-11-28 08:03:00
1:51 AM,24.1,21.9,91,30.19,8.0,Calm,Calm,-,N/A,,Scattered Clouds,0,2012-11-28 08:51:00
1:57 AM,24.8,21.2,86,30.11,2.5,Calm,Calm,-,N/A,,Mostly Cloudy,0,2012-11-28 08:57:00
2:12 AM,24.8,21.2,86,30.10,10.0,Calm,Calm,-,N/A,,Mostly Cloudy,0,2012-11-28 09:12:00
2:24 AM,24.8,23.0,93,30.10,10.0,WSW,3.5,-,N/A,,Scattered Clouds,240,2012-11-28 09:24:00
2:51 AM,24.1,21.9,91,30.18,9.0,Calm,Calm,-,N/A,,Partly Cloudy,0,2012-11-28 09:51:00
3:03 AM,24.8,21.2,86,30.10,10.0,Calm,Calm,-,N/A,,Mostly Cloudy,0,2012-11-28 10:03:00
3:27 AM,21.2,19.4,93,30.10,9.0,Calm,Calm,-,N/A,,Scattered Clouds,0,2012-11-28 10:27:00
3:35 AM,21.2,19.4,93,30.10,7.0,Calm,Calm,-,N/A,,Mostly Cloudy,0,2012-11-28 10:35:00
3:51 AM,21.9,19.9,92,30.18,7.0,Calm,Calm,-,N/A,,Overcast,0,2012-11-28 10:51:00
3:54 AM,21.2,19.4,93,30.10,1.5,Calm,Calm,-,N/A,,Overcast,0,2012-11-28 10:54:00
4:01 AM,21.2,19.4,93,30.10,0.2,Calm,Calm,-,N/A,Fog,Light Freezing Fog,0,2012-11-28 11:01:00
4:21 AM,21.2,19.4,93,30.09,1.2,NNE,3.5,-,N/A,,Overcast,30,2012-11-28 11:21:00
4:23 AM,21.2,19.4,93,30.09,3.0,Calm,Calm,-,N/A,,Mostly Cloudy,0,2012-11-28 11:23:00
4:51 AM,21.0,18.0,88,30.18,10.0,Calm,Calm,-,N/A,,Scattered Clouds,0,2012-11-28 11:51:00
5:09 AM,19.4,17.6,93,30.08,1.8,Calm,Calm,-,N/A,,Partly Cloudy,0,2012-11-28 12:09:00
5:12 AM,19.4,17.6,93,30.08,0.8,Calm,Calm,-,N/A,,Mist,0,2012-11-28 12:12:00
5:21 AM,19.4,17.6,93,30.08,1.2,Calm,Calm,-,N/A,,Partly Cloudy,0,2012-11-28 12:21:00
5:24 AM,19.4,17.6,93,30.08,3.0,Calm,Calm,-,N/A,,Partly Cloudy,0,2012-11-28 12:24:00
5:47 AM,19.4,17.6,93,30.07,2.5,Calm,Calm,-,N/A,,Mostly Cloudy,0,2012-11-28 12:47:00
5:48 AM,19.0,16.0,88,30.19,2.5,Calm,Calm,-,N/A,,Mostly Cloudy,0,2012-11-28 12:48:00
5:55 AM,19.4,17.6,93,30.07,7.0,Calm,Calm,-,N/A,,Mostly Cloudy,0,2012-11-28 12:55:00
6:01 AM,19.4,17.6,93,30.07,1.8,Calm,Calm,-,N/A,,Overcast,0,2012-11-28 13:01:00
6:07 AM,19.4,17.6,93,30.07,3.0,Calm,Calm,-,N/A,,Overcast,0,2012-11-28 13:07:00
6:22 AM,19.4,17.6,93,30.07,0.8,Calm,Calm,-,N/A,,Mist,0,2012-11-28 13:22:00
6:51 AM,19.0,17.1,92,30.18,0.2,Calm,Calm,-,N/A,Fog,Light Freezing Fog,0,2012-11-28 13:51:00
7:16 AM,19.4,17.6,93,30.06,1.2,Calm,Calm,-,N/A,,Overcast,0,2012-11-28 14:16:00
7:28 AM,19.4,17.6,93,30.05,0.8,Calm,Calm,-,N/A,,Mist,0,2012-11-28 14:28:00
7:51 AM,21.0,16.0,81,30.17,0.8,Calm,Calm,-,N/A,,Haze,0,2012-11-28 14:51:00
8:51 AM,21.9,17.1,82,30.17,0.2,Calm,Calm,-,N/A,,Haze,0,2012-11-28 15:51:00
9:47 AM,24.8,19.4,80,30.04,1.2,East,3.5,-,N/A,,Haze,80,2012-11-28 16:47:00
9:49 AM,24.8,19.4,80,30.04,3.0,Calm,Calm,-,N/A,,Haze,0,2012-11-28 16:49:00
9:51 AM,25.0,19.9,81,30.14,6.0,Calm,Calm,-,N/A,,Haze,0,2012-11-28 16:51:00
9:59 AM,26.6,21.2,80,30.03,6.0,Calm,Calm,-,N/A,,Scattered Clouds,0,2012-11-28 16:59:00
10:51 AM,28.9,25.0,85,30.09,10.0,Calm,Calm,-,N/A,,Clear,0,2012-11-28 17:51:00
11:51 AM,28.9,28.0,96,30.05,10.0,Calm,Calm,-,N/A,,Clear,0,2012-11-28 18:51:00
12:51 PM,30.9,28.9,92,30.02,10.0,Calm,Calm,-,N/A,,Clear,0,2012-11-28 19:51:00
1:51 PM,34.0,30.0,85,29.99,10.0,Calm,Calm,-,N/A,,Partly Cloudy,0,2012-11-28 20:51:00
2:51 PM,36.0,30.0,79,29.97,10.0,Calm,Calm,-,N/A,,Overcast,0,2012-11-28 21:51:00
3:51 PM,36.0,30.9,82,29.96,10.0,Calm,Calm,-,N/A,,Overcast,0,2012-11-28 22:51:00
4:51 PM,34.0,30.0,85,29.96,10.0,Calm,Calm,-,N/A,,Mostly Cloudy,0,2012-11-28 23:51:00
5:51 PM,33.1,30.0,89,29.98,10.0,Calm,Calm,-,N/A,,Overcast,0,2012-11-29 00:51:00
6:51 PM,37.0,28.9,73,30.00,10.0,South,3.5,-,0.00,Rain,Light Rain,170,2012-11-29 01:51:00
7:05 PM,37.4,30.2,75,29.90,10.0,SE,9.2,-,0.00,Rain,Light Rain,140,2012-11-29 02:05:00
7:51 PM,37.0,32.0,82,29.97,10.0,ESE,8.1,-,0.03,Rain,Light Rain,110,2012-11-29 02:51:00
8:02 PM,35.6,33.8,93,29.88,10.0,East,6.9,-,0.00,Rain,Light Rain,100,2012-11-29 03:02:00
8:51 PM,35.1,33.1,92,29.97,10.0,Calm,Calm,-,0.00,,Overcast,0,2012-11-29 03:51:00
9:12 PM,33.8,33.8,100,29.90,10.0,WSW,3.5,-,N/A,,Overcast,240,2012-11-29 04:12:00
9:51 PM,35.1,32.0,89,29.99,10.0,South,4.6,-,0.01,Rain,Light Rain,170,2012-11-29 04:51:00
10:39 PM,35.6,33.8,93,29.92,9.0,SSE,6.9,-,0.03,Rain,Light Rain,150,2012-11-29 05:39:00
10:51 PM,35.1,33.1,92,29.99,10.0,South,8.1,-,0.03,Rain,Light Rain,170,2012-11-29 05:51:00
11:13 PM,35.6,33.8,93,29.93,10.0,SSE,8.1,-,N/A,Rain,Light Rain,160,2012-11-29 06:13:00
11:20 PM,35.6,33.8,93,29.93,10.0,SE,8.1,-,0.00,Rain,Light Rain,130,2012-11-29 06:20:00